Showing default

CONNECTA IOT-4, 60524

Orbit data source: Space-Track

CONNECTA IOT-4, 60524 is a payload satellite owned by Plan-S (TR) in SSO that was launched on Fri, 16 Aug 2024 UTC via an FALCON 9 launch vehicle from the Air Force Western Test Range (AFWTR). Payload-class satellites include a variety of spacecraft equipped with specific instruments for various scientific and technological missions. These include communications satellites like Starlink; space stations such as the ISS; scientific satellites like the Hubble; Earth observation satellites from companies like Planet Labs, Umbra, and HawkEye 360; GPS; miniature CubeSats for education and research; and military/defense satellites.

Loading next visibility...
Identifier
60524, 2024-149BJ
Orbit
SSO
Country
Flag of UnknownUnknown / TURK
Related business
Manufacturer
Plan-S
Mission
Operational Commercial Communications
Bus & Motor
CUBESAT 6U, Unknown motor
Mass
10 kg wet, 10 kg dry
Launch date (UTC)
2024-08-16 (1 year ago)
Launch vehicle
FALCON 9
Launch site
Air Force Western Test Range (AFWTR)
Object type
Payload
Rocket body
Debris
Shape & HBR
Box, 2.2 m
Radar Cross Section
0.080 m², Medium (>0.1 m² and < 1m²)

Expand to show TLE details & history
Last TLE update: 9 hours ago

TLE from 9 hours ago
0 CONNECTA IOT-4
1 60524U 24149BJ  26035.17060300  .00019696  00000-0  54308-3 0  9994
2 60524  97.3894 118.4282 0006610  52.9328 307.2520 15.37128041 81861
Epoch: 2026-02-04T04:05Z
TLE epoch observation values (Epoch: 2026-02-04T04:05:40.099Z)
Latitude
-0°
Longitude
-77.3299°
Altitude
454.988 km
Speed
7.641 km/s
True Right ascension
07h 53m 42s
True Declination
0° 00' 00"
Sunlit
Object was in full shadow at epoch
Visualization orbit readout
Latitude
Unknown
Longitude
Unknown
Altitude
Unknown
Speed
Unknown
Apparent Right ascension
Unknown
Apparent Declination
Unknown
Sunlit
N/A
Visualization observer readout
Local Sidereal Time
14:54:39
Azimuth
Unknown
Elevation
Unknown
Doppler factor
Unknown
Orbital elements
Apogee altitude
456.064 km
Perigee altitude
447.035 km
Semi-major axis
6,829.686 km
Eccentricity
0.00066
Inclination
97.3894°
RAAN
118.4282°
Arg. of periapsis
52.9328°
True anomaly
307.19168°
Mean anomaly
307.252°
Eccentric anomaly
307.22184°
Mean motion
3.8454 °/min
Orbital period
93.62 mins
BSTAR
0.00054308
Loading maneuver chart data...
Computing Atmospheric mass density...
Loading historical data...
Loading historical data...
Loading historical data...
Loading historical data...
Loading historical data...
Loading historical data...
Loading historical data...

Documentation

Showing up to 5 results
|